EA7RX-3 Weather Reports


time (UTC)temp
C
wind
direction
speed
KPH
gust
KPH
rain 1hr
cm
rain 24hr
cm
rain mn
cm
humidity
%
barometer
mb
20260508070735 13 0.0 0.0 0.00 0.00 0.00 10 1007.2
20260508065735 13 0.0 0.0 0.00 0.00 0.00 10 1007.2
20260508064735 13 0.0 0.0 0.00 0.00 0.00 10 1007.1
20260508063735 13 0.0 0.0 0.00 0.00 0.00 10 1007.1
20260508062735 13 0.0 0.0 0.00 0.00 0.00 10 1007.0
20260508061735 13 0.0 0.0 0.00 0.00 0.00 10 1006.8
20260508060735 13 0.0 0.0 0.00 0.00 0.00 10 1006.8
20260508055735 13 0.0 0.0 0.00 0.00 0.00 10 1006.7
20260508054735 13 0.0 0.0 0.00 0.00 0.00 10 1006.5
20260508053735 13 0.0 0.0 0.00 0.00 0.00 10 1006.5
20260508052735 13 0.0 0.0 0.00 0.00 0.00 10 1006.5
20260508051735 13 0.0 0.0 0.00 0.00 0.00 10 1006.4
20260508045825 13 0.0 0.0 0.00 0.00 0.00 10 1006.2
20260508044834 13 0.0 0.0 0.00 0.00 0.00 10 1006.3
20260508043823 13 0.0 0.0 0.00 0.00 0.00 10 1006.2
20260508042823 13 0.0 0.0 0.00 0.00 0.00 10 1006.2
20260508041825 13 0.0 0.0 0.00 0.00 0.00 10 1006.5
20260508040823 13 0.0 0.0 0.00 0.00 0.00 10 1006.6
20260508035825 13 0.0 0.0 0.00 0.00 0.00 10 1006.5
20260508034823 13 0.0 0.0 0.00 0.00 0.00 10 1006.5
20260508033825 13 0.0 0.0 0.00 0.00 0.00 10 1006.7
20260508032823 13 0.0 0.0 0.00 0.00 0.00 10 1006.5
20260508031823 14 0.0 0.0 0.00 0.00 0.00 10 1006.4
20260508030823 13 0.0 0.0 0.00 0.00 0.00 10 1006.5
20260508025823 13 0.0 0.0 0.00 0.00 0.00 10 1006.6
20260508024823 14 0.0 0.0 0.00 0.00 0.00 10 1006.4
20260508023823 14 0.0 0.0 0.00 0.00 0.00 10 1006.5
20260508022823 14 0.0 0.0 0.00 0.00 0.00 10 1006.6
20260508021825 14 0.0 0.0 0.00 0.00 0.00 10 1006.6
20260508020825 14 0.0 0.0 0.00 0.00 0.00 10 1006.6
20260508015823 14 0.0 0.0 0.00 0.00 0.00 10 1006.5
20260508014823 14 0.0 0.0 0.00 0.00 0.00 10 1006.5
20260508013823 15 0.0 0.0 0.00 0.00 0.00 98 1006.6
20260508012825 15 0.0 0.0 0.00 0.00 0.00 98 1006.8
20260508011823 15 0.0 0.0 0.00 0.00 0.00 97 1006.9
20260508010823 15 0.0 0.0 0.00 0.00 0.00 96 1007.0
20260508005823 15 0.0 0.0 0.00 0.00 0.00 95 1007.1
20260508004823 16 0.0 0.0 0.00 0.00 0.00 90 1007.0
20260508003825 16 0.0 0.0 0.00 0.00 0.00 88 1007.2
20260508002825 16 0.0 0.0 0.00 0.00 0.00 87 1007.2
20260508001825 16 0.0 0.0 0.00 0.00 0.00 88 1007.4
20260508000825 16 0.0 0.0 0.00 0.00 0.00 85 1007.4
20260507235823 16 0.0 0.0 0.00 0.00 0.00 89 1007.5
20260507234823 16 0.0 0.0 0.00 0.00 0.00 90 1007.6
20260507233823 16 0.0 0.0 0.00 0.00 0.00 90 1007.5
20260507232823 16 0.0 0.0 0.00 0.00 0.00 90 1007.4
20260507231823 16 0.0 0.0 0.00 0.00 0.00 89 1007.5
20260507230825 16 0.0 0.0 0.00 0.00 0.00 91 1007.5
20260507225823 16 0.0 0.0 0.00 0.00 0.00 90 1007.4
20260507224823 16 0.0 0.0 0.00 0.00 0.00 90 1007.4
20260507223823 16 0.0 0.0 0.00 0.00 0.00 87 1007.4
20260507222825 16 0.0 0.0 0.00 0.00 0.00 87 1007.6
20260507221823 16 0.0 0.0 0.00 0.00 0.00 88 1007.9
20260507220823 16 0.0 0.0 0.00 0.00 0.00 89 1007.8
20260507215823 17 0.0 0.0 0.00 0.00 0.00 85 1007.9
20260507214823 17 0.0 0.0 0.00 0.00 0.00 86 1007.9
20260507213823 17 0.0 0.0 0.00 0.00 0.00 89 1007.7
20260507212823 17 0.0 0.0 0.00 0.00 0.00 74 1007.7
20260507211823 17 0.0 0.0 0.00 0.00 0.00 73 1007.5
20260507210823 17 0.0 0.0 0.00 0.00 0.00 75 1007.5
20260507205823 17 0.0 0.0 0.00 0.00 0.00 73 1007.1
20260507204823 18 0.0 0.0 0.00 0.00 0.00 72 1006.8
20260507203825 17 0.0 0.0 0.00 0.00 0.00 75 1006.9
20260507202823 17 0.0 0.0 0.00 0.00 0.00 82 1006.8
20260507201823 17 0.0 0.0 0.00 0.00 0.00 74 1006.5
20260507200823 18 0.0 0.0 0.00 0.00 0.00 76 1006.5
20260507195823 18 0.0 0.0 0.00 0.00 0.00 76 1006.5
20260507194825 18 0.0 0.0 0.00 0.00 0.00 64 1006.5
20260507193828 18 0.0 0.0 0.00 0.00 0.00 60 1006.2
20260507192825 20 0.0 0.0 0.00 0.00 0.00 55 1005.8
20260507191823 20 0.0 0.0 0.00 0.00 0.00 52 1005.3
20260507190823 21 0.0 0.0 0.00 0.00 0.00 48 1005.1
20260507185823 22 0.0 0.0 0.00 0.00 0.00 44 1004.4
20260507184825 23 0.0 0.0 0.00 0.00 0.00 41 1004.3
20260507183823 23 0.0 0.0 0.00 0.00 0.00 39 1004.0
20260507182825 25 0.0 0.0 0.00 0.00 0.00 36 1003.5
20260507181823 32 0.0 0.0 0.00 0.00 0.00 29 1002.1
20260507180825 31 0.0 0.0 0.00 0.00 0.00 29 1002.2
20260507175823 32 0.0 0.0 0.00 0.00 0.00 28 1002.1
20260507174825 33 0.0 0.0 0.00 0.00 0.00 28 1001.8
20260507173823 32 0.0 0.0 0.00 0.00 0.00 29 1001.9
20260507172823 32 0.0 0.0 0.00 0.00 0.00 29 1002.0
20260507171823 23 0.0 0.0 0.00 0.00 0.00 39 1003.9
20260507170825 22 0.0 0.0 0.00 0.00 0.00 41 1004.4
20260507165825 22 0.0 0.0 0.00 0.00 0.00 41 1004.4
20260507164823 22 0.0 0.0 0.00 0.00 0.00 42 1004.5
20260507163823 20 0.0 0.0 0.00 0.00 0.00 47 1005.0
20260507162825 21 0.0 0.0 0.00 0.00 0.00 44 1005.0
20260507161823 22 0.0 0.0 0.00 0.00 0.00 41 1004.7
20260507160825 22 0.0 0.0 0.00 0.00 0.00 40 1004.6
20260507155823 22 0.0 0.0 0.00 0.00 0.00 40 1004.7
20260507154823 22 0.0 0.0 0.00 0.00 0.00 42 1004.5
20260507153823 21 0.0 0.0 0.00 0.00 0.00 45 1004.7
20260507153056 21 0.0 0.0 0.00 0.00 0.00 46 1004.8
20260507152823 21 0.0 0.0 0.00 0.00 0.00 46 1004.8
20260507151916 22 0.0 0.0 0.00 0.00 0.00 41 1004.2
20260507151823 22 0.0 0.0 0.00 0.00 0.00 41 1004.2
20260507150823 22 0.0 0.0 0.00 0.00 0.00 41 1004.4
20260507145823 21 0.0 0.0 0.00 0.00 0.00 41 1004.4
20260507144825 21 0.0 0.0 0.00 0.00 0.00 42 1004.8
20260507143823 21 0.0 0.0 0.00 0.00 0.00 41 1004.9
20260507142823 21 0.0 0.0 0.00 0.00 0.00 39 1004.8
20260507141825 21 0.0 0.0 0.00 0.00 0.00 38 1004.8
20260507140823 21 0.0 0.0 0.00 0.00 0.00 41 1004.9
20260507135823 21 0.0 0.0 0.00 0.00 0.00 42 1005.1
20260507134825 20 0.0 0.0 0.00 0.00 0.00 46 1005.7
20260507133823 19 0.0 0.0 0.00 0.00 0.00 46 1006.1
20260507132823 18 0.0 0.0 0.00 0.00 0.00 58 1006.5
20260507131823 17 0.0 0.0 0.00 0.00 0.00 58 1006.8
20260507130823 18 0.0 0.0 0.00 0.00 0.00 58 1006.7
20260507125825 19 0.0 0.0 0.00 0.00 0.00 59 1006.4
20260507124825 20 0.0 0.0 0.00 0.00 0.00 58 1006.1
20260507123823 20 0.0 0.0 0.00 0.00 0.00 59 1006.1
20260507122823 18 0.0 0.0 0.00 0.00 0.00 58 1006.5
20260507121823 18 0.0 0.0 0.00 0.00 0.00 63 1006.6
20260507120823 18 0.0 0.0 0.00 0.00 0.00 65 1006.4
20260507115823 18 0.0 0.0 0.00 0.00 0.00 69 1006.7
20260507114823 18 0.0 0.0 0.00 0.00 0.00 70 1006.9
20260507113823 17 0.0 0.0 0.00 0.00 0.00 74 1007.2
20260507112823 17 0.0 0.0 0.00 0.00 0.00 79 1007.4
20260507111823 17 0.0 0.0 0.00 0.00 0.00 85 1007.3
20260507110823 17 0.0 0.0 0.00 0.00 0.00 84 1007.6
20260507105825 16 0.0 0.0 0.00 0.00 0.00 89 1007.8
20260507104825 16 0.0 0.0 0.00 0.00 0.00 87 1008.0
20260507103823 16 0.0 0.0 0.00 0.00 0.00 95 1008.1
20260507102825 16 0.0 0.0 0.00 0.00 0.00 89 1008.2
20260507101823 17 0.0 0.0 0.00 0.00 0.00 90 1008.0
20260507100823 16 0.0 0.0 0.00 0.00 0.00 10 1008.0
20260507095823 15 0.0 0.0 0.00 0.00 0.00 10 1008.2
20260507094823 15 0.0 0.0 0.00 0.00 0.00 98 1008.3
20260507093823 15 0.0 0.0 0.00 0.00 0.00 98 1008.2
20260507092823 14 0.0 0.0 0.00 0.00 0.00 10 1008.4
20260507091823 13 0.0 0.0 0.00 0.00 0.00 10 1008.4
20260507090825 13 0.0 0.0 0.00 0.00 0.00 10 1008.6
20260507085825 13 0.0 0.0 0.00 0.00 0.00 10 1008.6
20260507084823 13 0.0 0.0 0.00 0.00 0.00 10 1008.7
20260507083825 13 0.0 0.0 0.00 0.00 0.00 10 1009.0
20260507082823 13 0.0 0.0 0.00 0.00 0.00 10 1009.0
20260507081823 12 0.0 0.0 0.00 0.00 0.00 10 1009.2
20260507080823 12 0.0 0.0 0.00 0.00 0.00 10 1009.2
20260507075823 12 0.0 0.0 0.00 0.00 0.00 10 1009.4
20260507074823 12 0.0 0.0 0.00 0.00 0.00 10 1009.7
20260507073824 12 0.0 0.0 0.00 0.00 0.00 10 1008.9
20260507072825 12 0.0 0.0 0.00 0.00 0.00 10 1009.0
20260507071824 12 0.0 0.0 0.00 0.00 0.00 10 1009.0